Live-Position
3D-Globus wird geladen...
Über Starlink 1277
Group: 3 satellites
Beschreibung wird geladen...
Nächste Überflüge
Passes for default location (London). Set your location on the main map for personalized predictions.
Höhenverlauf
Loading altitude history...
No altitude history available
Zweizeiliger Elementsatz
1 45369U 20019K 26123.62630473 .00059483 00000-0 76917-3 0 9996
2 45369 53.0466 247.5023 0005270 271.3361 88.7047 15.58369355338472
Epoch: 3. Mai 2026 •
Age: 24 hours
Aktueller Status
Höhe 400.3 km
Geschwindigkeit 7.67 km/s
Subsatellitenpunkt 46.35°N,
70.6°W
Startdatum 18. März 2020
Alter 6.1 years
Typ internet
Startgruppe
Falcon 9 •
Launch 5 •
31 satellites
Starlink 1279
45360
Starlink 1301 45361
Starlink 1262 45366
Starlink 1273 45367
Starlink 1276 45368
Starlink 1281 45370
Starlink 1300 45374
Starlink 1302 45375
Starlink 1304 45376
Starlink 1305 45377
Starlink 1319 45379
Starlink 1266 45383
Starlink 1267 45384
Starlink 1272 45386
Starlink 1274 45387
Starlink 1280 45388
Starlink 1283 45389
Starlink 1284 45390
Starlink 1297 45395
Starlink 1307 45397
...and 10 more
Technische Details
Klassifizierung Payload
Masse 260.00 kg
Trockenmasse 248.00 kg
Gesamtmasse 260.00 kg
Länge 0.20 m
Durchmesser 2.80 m
Spannweite 9.00 m
Form Box + pan
Hersteller SPXS
Bus-Typ Starlink
Phasenstatus In Orbit
Besitzer/Staat SPXS/US
Most Searched
Loading...